Regional Weather Roundup
Issued by NWS

Home | Current Version | Previous Version | Graphics & Text | Print | Product List | Glossary On
Versions: 1 2 3 4 5 6 7 8 9 10 11 12 13 14 15 16 17 18 19 20 21 22 23 24 25 26 27 28 29 30 31 32 33 34 35 36 37 38 39 40 41 42 43 44 45 46 47 48 49 50
000
ASUS45 KCYS 251910
RWRWY

WYOMING REGIONAL WEATHER ROUNDUP
NATIONAL WEATHER SERVICE CHEYENNE WY
100 PM MDT FRI JUL 25 2014

NOTE:  "FAIR" INDICATES FEW OR NO CLOUDS BELOW 12,000 FEET
WITH NO SIGNIFICANT WEATHER AND/OR OBSTRUCTIONS TO VISIBILITY.

WYZ001-252000-
YELLOWSTONE NATIONAL PARK

CITY           SKY/WX    TMP DP  RH WIND       PRES   REMARKS
LK YELLOWSTONE   N/A     66  19  16 VRB7      30.25S
W YELLOWSTONE  NOT AVBL

$$
WYZ002>013-054>058-071-098>099-252000-
NORTHERN WYOMING

CITY           SKY/WX    TMP DP  RH WIND       PRES   REMARKS
JACKSON        SUNNY     77  25  14 SW21      30.16F
CODY           NOT AVBL
GREYBULL       SUNNY     83  34  17 CALM      29.93F
WORLAND        SUNNY     83  36  18 N7        29.94F
SHERIDAN       SUNNY     82  50  32 E7        29.93F
BUFFALO        SUNNY     82  48  30 E12G20    29.98F
GILLETTE       SUNNY     82  41  23 SE6G16    29.96F
HULETT         FAIR      77  43  29 MISG      29.99
NEWCASTLE      FAIR      81  45  28 MISG      29.99

$$
WYZ014>020-022>026-101>103-252000-
CENTRAL WYOMING

CITY           SKY/WX    TMP DP  RH WIND       PRES   REMARKS
BIG PINEY      SUNNY     81  30  15 VRB7      30.19F
PINEDALE       CLEAR     79  30  17 NW7       30.21S
DUBOIS         FAIR      77  21  12 W22G35    30.16R
LANDER         SUNNY     85  31  14 N3        30.02F
RIVERTON       SUNNY     84  37  18 E7        30.02F
CASPER         SUNNY     92  42  17 W18G25    30.00F
DOUGLAS        SUNNY     86  51  29 SE9       30.02F

$$
WYZ021-027>030-104>119-252000-
SOUTHERN WYOMING

CITY           SKY/WX    TMP DP  RH WIND       PRES   REMARKS
EVANSTON       SUNNY     84  34  16 SW23G32   30.22F
KEMMERER       CLEAR     81  30  16 W16G24    30.22F
FORT BRIDGER   FAIR      87  28  12 W18G30    30.23F
ROCK SPRINGS   SUNNY     86  27  11 W23G29    30.17F
DIXON          FAIR      91  33  12 W16G25    30.19F
RAWLINS        SUNNY     88  39  17 SW17G33   30.16F
SARATOGA       FAIR      86  37  17 SW9G30    30.21S
LARAMIE        PTSUNNY   85  44  23 SW17      30.21F
CHEYENNE       PTSUNNY   84  54  35 SE7G20    30.14F
TORRINGTON     MOSUNNY   82  43  25 SE12      30.00F
PINE BLUFFS    FAIR      84  52  32 E5        30.08F

$$


USA.gov is the U.S. government's official web portal to all federal, state and local government web resources and services.